DELTA 1 DEB, 42584

Orbit data source: Space-Track

DELTA 1 DEB, 42584 is space debris in SSO originally from a launch on Tue, 06 Nov 1973 UTC launched from the Air Force Western Test Range (AFWTR). Debris objects in space refer to the collection of defunct objects orbiting the Earth. Examples of debris include non-operational satellites, rocket bodies, and fragments generated from explosions, collisions, or faulty payload assembly.

Loading next visibility...
Identifier
42584, 1973-086HY
Orbit
SSO
Country
Flag of USUS
Related business
Manufacturer
Unknown
Mission
Spacecraft
Bus & Motor
Unknown
Mass
Unknown
Launch date (UTC)
1973-11-06 (53 years ago)
Launch vehicle
Unknown
Launch site
Air Force Western Test Range (AFWTR)
Object type
Payload
Rocket body
Debris
Shape & HBR
Unknown shape, 0.1 m
Radar Cross Section
Medium (>0.1 m² and <1 m²)

Expand to show TLE details & history
Last TLE update: 3 days ago

TLE from 3 days ago
0 DELTA 1 DEB
1 42584U 73086HY  26170.49583319 -.00000038  00000-0  63400-4 0  9994
2 42584 102.3939 186.2536 0019154 328.1287 189.8855 12.36925730567789
Epoch: 2026-06-19T11:53Z
TLE epoch observation values (Epoch: 2026-06-19T11:53:59.987Z)
Latitude
21.49694°
Longitude
-75.02943°
Altitude
1,536.853 km
Speed
7.093 km/s
True Right ascension
00h 44m 46s
True Declination
21° 23' 29"
Sunlit
Object was in daylight at epoch
Visualization orbit readout
Latitude
Unknown
Longitude
Unknown
Altitude
Unknown
Speed
Unknown
Apparent Right ascension
Unknown
Apparent Declination
Unknown
Sunlit
N/A
Visualization observer readout
Local Sidereal Time
02:13:23
Azimuth
Unknown
Elevation
Unknown
Doppler factor
Unknown
Orbital elements
Apogee altitude
1,532.388 km
Perigee altitude
1,502.142 km
Semi-major axis
7,895.402 km
Eccentricity
0.00192
Inclination
102.3939°
RAAN
186.2536°
Arg. of periapsis
328.1287°
True anomaly
189.84791°
Mean anomaly
189.8855°
Eccentric anomaly
189.86669°
Mean motion
3.09373 °/min
Orbital period
116.36 mins
BSTAR
0.0000634
Loading maneuver chart data...
Computing Atmospheric mass density...
Loading historical data...
Loading historical data...
Loading historical data...
Loading historical data...
Loading historical data...
Loading historical data...
Loading historical data...

Documentation

Showing up to 5 results
|